Temp
44 45 45 45 44 44 42 43 40 39 39 39 40 39 39 38 38 42 42 41 43 43
42 45 44 43 40 38 38 41 40 39 38 38 38 38 37 35 35 37 40 41 41 40
42 42 41 40 38 38 37 38 37 37 37 37 37 36 35 32 34 39 39 38 39 40
43 40 40 41 38 37 37 38 37 38 38 37 36 36 34 34 35 35 36 36 36 38
42 41 43 40 39 39 37 38 38 37 36 36 36 36 35 32 34 35 36 37 35 36
40 42 43 40 41 40 40 37 36 37 36 36 37 36 34 34 35 33 33 33 35 35
43 42 43 41 40 38 39 40 39 35 35 36 36 36 36 36 33 32 33 33 35 36
45 45 43 41 38 41 38 39 36 34 35 36 35 36 33 32 31 32 33 32 35 37
43 45 41 41 40 39 38 37 34 33 34 36 35 38 38 36 33 34 34 33 34 36
44 43 41 41 39 38 36 38 33 33 35 35 33 37 37 37 34 33 33 33 33 34
43 42 41 38 38 36 38 36 36 35 36 34 34 37 36 36 33 34 34 34 32 34
42 41 41 39 35 38 36 36 37 36 34 35 31 37 36 35 33 33 33 34 34 35
43 42 40 38 37 38 37 36 35 37 35 36 32 36 36 35 34 33 33 34 35 36
43 41 40 39 38 36 36 34 33 34 35 35 34 33 37 37 33 33 33 32 33 33
MSLP
1022.47 1022.32 1022.14 1021.97 1021.76 1021.51 1021.26 1020.93 1020.47 1020.27 1020.01 1019.72 1019.49 1019.35 1019.14 1019.00 1018.87 1018.78 1018.72 1018.50 1018.30 1017.95
1022.72 1022.39 1022.15 1021.89 1021.64 1021.35 1021.09 1020.76 1020.26 1020.01 1019.72 1019.33 1019.14 1018.98 1018.93 1018.83 1018.65 1018.53 1018.39 1018.17 1018.08 1017.83
1022.61 1022.23 1021.88 1021.58 1021.30 1021.07 1020.78 1020.42 1020.10 1019.76 1019.40 1019.05 1018.81 1018.67 1018.60 1018.44 1018.33 1018.23 1018.05 1017.86 1017.72 1017.52
1022.12 1021.81 1021.57 1021.25 1021.12 1020.80 1020.42 1020.09 1019.81 1019.52 1019.18 1018.89 1018.65 1018.38 1018.20 1018.02 1017.97 1017.87 1017.63 1017.46 1017.34 1017.09
1021.66 1021.37 1021.14 1020.95 1020.58 1020.21 1020.04 1019.80 1019.49 1019.19 1018.89 1018.56 1018.22 1017.92 1017.72 1017.54 1017.37 1017.29 1017.16 1017.14 1017.08 1016.79
1021.24 1020.90 1020.71 1020.53 1020.28 1019.99 1019.67 1019.40 1019.17 1018.81 1018.55 1018.17 1017.78 1017.43 1017.12 1016.94 1016.77 1016.77 1016.60 1016.51 1016.44 1016.36
1020.80 1020.45 1020.27 1020.15 1019.98 1019.72 1019.37 1019.02 1018.67 1018.34 1018.07 1017.69 1017.22 1016.83 1016.54 1016.32 1016.17 1016.04 1015.92 1015.78 1015.75 1015.69
1020.44 1020.25 1020.11 1020.04 1019.77 1019.40 1019.03 1018.71 1018.25 1018.01 1017.54 1017.09 1016.75 1016.30 1016.09 1016.00 1015.85 1015.64 1015.42 1015.28 1015.04 1014.97
1020.52 1020.24 1020.15 1019.93 1019.60 1019.13 1018.81 1018.35 1018.03 1017.59 1017.15 1016.82 1016.39 1015.96 1015.75 1015.57 1015.29 1015.01 1014.73 1014.53 1014.42 1014.37
1020.43 1020.21 1020.07 1019.80 1019.37 1018.88 1018.50 1017.92 1017.59 1017.20 1016.82 1016.38 1015.99 1015.68 1015.45 1015.17 1014.86 1014.40 1013.95 1013.95 1013.90 1013.96
1020.39 1020.06 1019.73 1019.60 1019.15 1018.79 1018.23 1017.55 1017.04 1016.84 1016.42 1016.07 1015.74 1015.40 1015.14 1014.83 1014.50 1013.95 1013.66 1013.59 1013.67 1013.70
1020.39 1019.97 1019.69 1019.58 1019.12 1018.59 1018.23 1017.62 1017.00 1016.52 1016.16 1015.90 1015.54 1015.23 1014.91 1014.52 1014.17 1013.61 1013.48 1013.47 1013.48 1013.52
1020.42 1020.04 1019.76 1019.47 1019.03 1018.68 1018.23 1017.72 1017.10 1016.42 1015.96 1015.65 1015.45 1015.07 1014.75 1014.32 1013.83 1013.37 1013.22 1013.23 1013.24 1013.28
1020.58 1020.13 1019.77 1019.32 1018.99 1018.82 1018.33 1017.81 1017.27 1016.74 1016.24 1015.66 1015.46 1015.20 1014.69 1014.21 1013.76 1013.39 1013.07 1012.99 1013.01 1013.02
Wind_Speed
6 3 4 4 5 6 6 7 6 6 6 6 5 5 6 4 4 7 6 7 8 7
7 7 4 5 5 4 6 5 6 7 6 6 5 5 5 3 4 5 5 6 8 6
6 6 6 6 6 6 6 5 7 7 7 6 6 6 5 3 4 8 8 5 7 8
7 6 7 6 5 6 6 6 7 6 6 6 6 6 5 6 5 7 6 5 6 8
6 7 7 4 6 5 5 6 6 6 6 6 6 6 6 6 6 7 8 10 9 9
8 6 5 5 6 6 5 5 6 7 8 9 8 6 6 6 5 6 7 6 9 10
7 6 5 5 6 6 5 7 9 7 8 9 10 7 6 6 6 6 6 7 7 11
5 4 4 6 6 9 7 8 8 7 8 8 6 5 5 5 6 8 10 8 8 10
6 5 5 9 8 10 6 10 7 8 8 9 5 8 8 9 7 8 10 9 10 8
5 7 6 7 8 8 10 12 9 8 7 7 6 9 10 11 5 8 7 7 7 6
6 5 6 6 9 9 11 11 11 7 8 6 5 9 9 9 7 5 4 3 4 4
8 7 7 7 8 9 12 10 10 7 5 6 5 9 10 8 7 5 3 4 4 5
8 8 7 6 7 8 10 9 8 8 5 6 5 8 9 8 4 4 3 3 5 7
9 7 5 7 4 7 9 8 8 8 8 8 4 6 11 9 3 3 3 3 2 2
Wind_Direction
346 342 335 336 338 323 314 305 303 289 293 290 294 289 280 276 271 276 279 296 278 245
342 334 320 317 305 293 292 300 304 294 283 282 288 288 295 273 268 287 293 287 272 276
318 302 298 290 291 303 291 291 298 292 287 284 278 277 281 268 283 285 273 256 266 277
283 289 286 282 305 299 299 302 302 301 308 308 293 280 252 246 262 267 274 258 244 249
285 276 282 294 292 289 302 308 298 308 298 288 280 281 275 254 250 243 257 270 269 266
277 273 276 294 290 302 314 308 302 303 303 298 290 272 272 261 249 258 236 238 249 257
287 271 267 284 294 295 292 293 290 290 284 282 280 275 276 272 248 248 245 233 235 257
305 310 316 324 302 311 302 292 291 288 287 285 290 271 265 285 283 276 274 261 244 243
345 336 350 326 324 320 308 295 295 290 285 312 300 287 287 293 275 275 266 255 254 247
330 336 329 323 314 319 320 312 289 290 295 300 278 293 309 307 291 277 258 249 243 234
330 310 306 325 322 323 332 314 314 302 298 301 298 302 314 307 295 299 268 219 226 246
323 315 330 339 324 339 341 335 328 307 302 309 296 324 316 315 297 282 261 240 238 232
334 336 338 317 332 341 345 334 323 329 304 288 318 320 328 331 310 317 233 233 236 245
343 328 337 315 329 346 343 334 335 349 338 324 317 335 329 343 325 338 310 216 209 204